Weather History for Evanston, WY

Change the Weather History Date:

Sunday, October 20, 2013

  Actual Average Record
Temperature  
Mean Temperature 44 °F 42 °F  
Max Temperature 55 °F 54 °F 73 °F (2003)
Min Temperature 33 °F 31 °F 12 °F (1996)
Degree Days  
Heating Degree Days 21 23  
Month to date heating degree days 457 378  
Since 1 July heating degree days 736 775  
Cooling Degree Days 0 0  
Month to date cooling degree days 0 0  
Year to date cooling degree days 348 162  
Moisture  
Dew Point 21 °F    
Average Humidity 39    
Maximum Humidity 51    
Minimum Humidity 27    
Precipitation  
Precipitation 0.00 in 0.04 in 1.05 in (2004)
Month to date precipitation 0.40 0.72  
Year to date precipitation 4.46 10.06  
Sea Level Pressure  
Sea Level Pressure 30.01 in    
Wind  
Wind Speed 8 mph (WSW)    
Max Wind Speed 13 mph    
Max Gust Speed 18 mph    
Visibility 10 miles    
Events      
T = Trace of Precipitation, MM = Missing Value Source: NWS Daily Summary

Daily Weather History Graph

Daily Weather History Graph

Search for Another Location

Airport:

Trip Planner

Search our weather history database for the weather conditions in past years. The results will help you decide how hot, cold, wet, or windy it might be!

Date:

Astronomy

Oct. 20, 2013 Rise Set
Actual Time 7:41 AM MDT 6:35 PM MDT
Civil Twilight 7:13 AM MDT 7:03 PM MDT
Nautical Twilight 6:41 AM MDT 7:35 PM MDT
Astronomical Twilight 6:09 AM MDT 8:07 PM MDT
Moon 7:45 PM MDT (10/20) 9:24 AM MDT (10/20)
Length of Visible Light 11h 49m
Length of Day
10h 53m
Full, 97% of the Moon is Illuminated
Oct 20
Full
Oct 26
Last Quarter
Nov 3
New
Nov 9
First Quarter
Nov 17
Full

Hourly Weather History & Observations

Time (MDT) Temp. Windchill Dew Point Humidity Pressure Visibility Wind Dir Wind Speed Gust Speed Precip Events Conditions
12:53 AM 37.9 °F 29.6 °F 17.1 °F 43% 30.02 in 10.0 mi SW 13.8 mph - N/A   Clear
1:53 AM 35.1 °F 29.3 °F 16.0 °F 46% 30.01 in 10.0 mi SSW 6.9 mph - N/A   Clear
2:53 AM 35.1 °F 27.9 °F 17.1 °F 48% 29.99 in 10.0 mi SW 9.2 mph - N/A   Clear
3:53 AM 37.0 °F 30.4 °F 17.1 °F 44% 29.97 in 10.0 mi SSW 9.2 mph - N/A   Clear
4:53 AM 39.9 °F 33.4 °F 18.0 °F 41% 29.94 in 10.0 mi SW 10.4 mph - N/A   Mostly Cloudy
5:53 AM 37.0 °F 28.9 °F 19.0 °F 48% 29.97 in 10.0 mi WSW 12.7 mph - N/A   Mostly Cloudy
6:53 AM 34.0 °F 26.6 °F 18.0 °F 52% 30.02 in 10.0 mi SW 9.2 mph - N/A   Clear
7:53 AM 33.1 °F 26.1 °F 18.0 °F 54% 30.04 in 10.0 mi WSW 8.1 mph - N/A   Partly Cloudy
8:53 AM 37.9 °F 32.7 °F 19.0 °F 47% 30.06 in 10.0 mi WSW 6.9 mph - N/A   Clear
9:53 AM 43.0 °F 40.3 °F 19.9 °F 40% 30.04 in 10.0 mi WSW 4.6 mph - N/A   Clear
10:53 AM 46.9 °F - 21.9 °F 37% 30.04 in 10.0 mi NW 4.6 mph - N/A   Clear
11:53 AM 48.9 °F - 21.9 °F 35% 30.02 in 10.0 mi SW 4.6 mph - N/A   Clear
12:53 PM 51.1 °F - 21.0 °F 31% 29.99 in 10.0 mi NNW 8.1 mph - N/A   Clear
1:53 PM 52.0 °F - 21.9 °F 31% 29.97 in 10.0 mi Variable 3.5 mph - N/A   Clear
2:53 PM 53.1 °F - 21.9 °F 30% 29.95 in 10.0 mi South 4.6 mph - N/A   Clear
3:53 PM 54.0 °F - 23.0 °F 30% 29.93 in 10.0 mi Variable 6.9 mph - N/A   Clear
4:53 PM 53.1 °F - 23.0 °F 31% 29.94 in 10.0 mi NW 8.1 mph 18.4 mph N/A   Partly Cloudy
5:53 PM 50.0 °F - 21.9 °F 33% 29.97 in 10.0 mi WNW 15.0 mph - N/A   Partly Cloudy
6:53 PM 44.1 °F 38.1 °F 21.9 °F 42% 30.04 in 10.0 mi NW 11.5 mph - N/A   Clear
7:53 PM 43.0 °F 37.2 °F 21.9 °F 43% 30.07 in 10.0 mi NW 10.4 mph - N/A   Clear
8:53 PM 41.0 °F 38.0 °F 23.0 °F 49% 30.06 in 10.0 mi West 4.6 mph - N/A   Clear
9:53 PM 37.9 °F 32.7 °F 23.0 °F 55% 30.06 in 10.0 mi West 6.9 mph - N/A   Clear
10:53 PM 39.0 °F 35.7 °F 24.1 °F 55% 30.06 in 10.0 mi NE 4.6 mph - N/A   Clear
11:53 PM 37.9 °F 34.4 °F 23.0 °F 55% 30.07 in 10.0 mi SSE 4.6 mph - N/A   Clear